DW6386 Weather Reports


time (UTC)temp
C
wind
direction
speed
KPH
gust
KPH
rain 1hr
cm
rain 24hr
cm
rain mn
cm
humidity
%
barometer
mb
20260903080056 22 186 0.0 0.0 0.00 0.00 0.00 97 1015.3
20260903074544 22 190 0.0 0.0 0.00 0.00 0.00 97 1015.2
20260903073048 22 190 0.0 0.0 0.00 0.00 0.00 97 1015.2
20260903071640 22 190 0.0 0.0 0.00 0.00 0.00 97 1015.1
20260903070039 22 190 0.0 0.0 0.00 0.00 0.00 96 1014.9
20260903064537 22 190 0.0 0.0 0.00 0.00 0.00 96 1015.1
20260903063035 22 190 0.0 0.0 0.00 0.00 0.00 96 1015.2
20260903061533 22 190 0.0 0.0 0.00 0.00 0.00 96 1015.2
20260903060034 22 190 0.0 0.0 0.00 0.00 0.00 95 1015.3
20260903054530 23 190 0.0 0.0 0.00 0.00 0.00 95 1015.4
20260903053029 23 190 0.0 0.0 0.00 0.00 0.00 95 1015.4
20260903051527 23 190 0.0 0.0 0.00 0.00 0.00 94 1015.4
20260903050027 23 190 0.0 0.0 0.00 0.00 0.00 94 1015.4
20260903044533 23 190 0.0 0.0 0.00 0.00 0.00 94 1015.3
20260903043026 23 190 0.0 0.0 0.00 0.00 0.00 93 1015.3
20260903041522 23 190 0.0 0.0 0.00 0.00 0.00 93 1015.4
20260903040020 23 190 0.0 0.0 0.00 0.00 0.00 92 1015.4
20260903034520 23 190 0.0 0.0 0.00 0.00 0.00 92 1015.3
20260903033019 24 190 0.0 0.0 0.00 0.00 0.00 91 1015.4
20260903031518 24 190 0.0 0.0 0.00 0.00 0.00 91 1015.3
20260903030018 24 190 0.0 0.0 0.00 0.00 0.00 90 1015.3
20260903024518 25 190 0.0 0.0 0.00 0.00 0.00 89 1015.4
20260903023017 25 190 0.0 0.0 0.00 0.00 0.00 88 1015.3
20260903021518 25 211 0.0 0.0 0.00 0.00 0.00 87 1015.3
20260903020016 25 211 0.0 0.0 0.00 0.00 0.00 87 1015.2
20260903014515 25 211 0.0 0.0 0.00 0.00 0.00 86 1015.2
20260903013015 26 211 0.0 0.0 0.00 0.00 0.00 84 1015.2
20260903011515 26 211 0.0 0.0 0.00 0.00 0.00 83 1014.9
20260903010015 26 211 0.0 0.0 0.00 0.00 0.00 83 1014.8
20260903004514 27 211 0.0 0.0 0.00 0.00 0.00 82 1014.7
20260903003013 27 211 0.0 0.0 0.00 0.00 0.00 79 1014.6
20260903001515 28 211 0.0 0.0 0.00 0.00 0.00 76 1014.6
20260903000021 29 211 0.0 0.0 0.00 0.00 0.00 73 1014.5
20260902234515 30 212 0.0 0.0 0.00 0.00 0.00 70 1014.6
20260902233012 31 212 0.0 0.0 0.00 0.00 0.00 67 1014.5
20260902231521 31 212 0.0 0.0 0.00 0.00 0.00 65 1014.6
20260902230010 32 212 0.0 0.0 0.00 0.00 0.00 60 1014.6
20260902224510 32 212 0.0 3.2 0.00 0.00 0.00 57 1014.6
20260902223009 33 227 0.0 3.2 0.00 0.00 0.00 56 1014.7
20260902221508 33 285 0.0 3.2 0.00 0.00 0.00 55 1014.7
20260902220008 33 275 0.0 1.6 0.00 0.00 0.00 55 1014.8
20260902214506 33 273 1.6 6.4 0.00 0.00 0.00 52 1014.8
20260902213005 33 77 0.0 0.0 0.00 0.00 0.00 52 1014.8
20260902211507 34 190 0.0 4.8 0.00 0.00 0.00 51 1014.9
20260902210004 35 216 0.0 1.6 0.00 0.00 0.00 52 1015.0
20260902204503 35 286 0.0 9.7 0.00 0.00 0.00 50 1015.0
20260902203002 35 330 0.0 3.2 0.00 0.00 0.00 49 1015.1
20260902201616 35 271 0.0 9.7 0.00 0.00 0.00 50 1015.2
20260902200108 35 186 0.0 4.8 0.00 0.00 0.00 49 1015.3
20260902194601 35 249 1.6 6.4 0.00 0.00 0.00 50 1015.6
20260902193055 35 241 0.0 6.4 0.00 0.00 0.00 49 1015.8
20260902191600 35 227 3.2 8.0 0.00 0.00 0.00 50 1015.9
20260902190116 35 92 0.0 3.2 0.00 0.00 0.00 53 1016.0
20260902184556 35 240 1.6 6.4 0.00 0.00 0.00 52 1016.3
20260902183046 35 262 0.0 6.4 0.00 0.00 0.00 53 1016.4
20260902181557 35 260 1.6 8.0 0.00 0.00 0.00 53 1016.5
20260902180042 35 105 0.0 4.8 0.00 0.00 0.00 56 1016.7
20260902174542 33 234 0.0 6.4 0.00 0.00 0.00 55 1016.7
20260902173041 34 258 0.0 3.2 0.00 0.00 0.00 55 1017.0
20260902171553 33 155 0.0 6.4 0.00 0.00 0.00 59 1017.3
20260902170035 33 224 0.0 3.2 0.00 0.00 0.00 59 1017.4
20260902164532 33 81 0.0 1.6 0.00 0.00 0.00 61 1017.6
20260902163030 32 172 0.0 3.2 0.00 0.00 0.00 63 1017.9
20260902161534 32 58 0.0 4.8 0.00 0.00 0.00 65 1018.1
20260902160024 32 167 0.0 0.0 0.00 0.00 0.00 66 1018.2
20260902154519 31 307 0.0 3.2 0.00 0.00 0.00 70 1018.3
20260902153021 30 254 0.0 4.8 0.00 0.00 0.00 72 1018.5
20260902151516 30 246 1.6 4.8 0.00 0.00 0.00 73 1018.5
20260902150012 30 215 0.0 3.2 0.00 0.00 0.00 76 1018.4
20260902144510 29 283 1.6 6.4 0.00 0.00 0.00 76 1018.4
20260902143008 28 234 1.6 4.8 0.00 0.00 0.00 77 1018.4
20260902141504 28 237 0.0 8.0 0.00 0.00 0.00 79 1018.4
20260902140003 28 270 1.6 4.8 0.00 0.00 0.00 79 1018.3
20260902134615 27 233 0.0 3.2 0.00 0.00 0.00 82 1018.4
20260902133057 27 222 0.0 3.2 0.00 0.00 0.00 84 1018.5
20260902131552 27 182 0.0 0.0 0.00 0.00 0.00 91 1018.5
20260902130048 26 182 0.0 0.0 0.00 0.00 0.00 95 1018.5
20260902124545 25 182 0.0 0.0 0.00 0.00 0.00 97 1018.5
20260902123042 23 182 0.0 0.0 0.00 0.00 0.00 99 1018.4
20260902121540 23 182 0.0 0.0 0.00 0.00 0.00 99 1018.3
20260902120035 21 182 0.0 0.0 0.00 0.00 0.00 99 1018.1
20260902114536 21 182 0.0 1.6 0.00 0.00 0.00 99 1017.8
20260902113034 21 182 0.0 0.0 0.00 0.00 0.00 98 1017.7
20260902111529 21 182 0.0 0.0 0.00 0.00 0.00 98 1017.5
20260902110029 21 182 0.0 0.0 0.00 0.00 0.00 98 1017.4
20260902104533 21 182 0.0 0.0 0.00 0.00 0.00 98 1017.2
20260902103027 21 182 0.0 0.0 0.00 0.00 0.00 98 1017.1
20260902101522 21 182 0.0 0.0 0.00 0.00 0.00 98 1016.9
20260902100020 21 182 0.0 0.0 0.00 0.00 0.00 98 1016.9
20260902094520 21 182 0.0 0.0 0.00 0.00 0.00 98 1016.8
20260902093020 21 182 0.0 0.0 0.00 0.00 0.00 98 1016.8
20260902091517 21 182 0.0 0.0 0.00 0.00 0.00 97 1016.8
20260902090017 21 182 0.0 0.0 0.00 0.00 0.00 98 1016.7
20260902084519 21 182 0.0 0.0 0.00 0.00 0.00 97 1016.5
20260902083015 21 182 0.0 0.0 0.00 0.00 0.00 98 1016.3
20260902081513 21 182 0.0 0.0 0.00 0.00 0.00 97 1016.2